This is the latest recevied weather packets stored in our database for station/object CA3EAP-13. If no packets are shown the sender has not sent any weather packets the latest 10 day(s).
| Time | Temp. | Humidity | Pressure | Rain* | Wind** | Luminosity | Snow |
|---|---|---|---|---|---|---|---|
| 1777903505 | 19.44° C | 36% | 1014.5 hPa | - | - | - | - |
| 1777902905 | 19.44° C | 35% | 1014.4 hPa | - | - | - | - |
| 1777902305 | 20° C | 35% | 1014.4 hPa | - | - | - | - |
| 1777901705 | 18.89° C | 36% | 1014.6 hPa | - | - | - | - |
| 1777901105 | 18.89° C | 37% | 1014.5 hPa | - | - | - | - |
| 1777900505 | 18.89° C | 35% | 1014.6 hPa | - | - | - | - |
| 1777899905 | 18.89° C | 36% | 1014.5 hPa | - | - | - | - |
| 1777899305 | 18.89° C | 37% | 1014.5 hPa | - | - | - | - |
| 1777898705 | 18.33° C | 37% | 1014.6 hPa | - | - | - | - |
| 1777898105 | 17.78° C | 38% | 1014.6 hPa | - | - | - | - |
| 1777897505 | 18.33° C | 37% | 1014.5 hPa | - | - | - | - |
| 1777896905 | 18.33° C | 39% | 1014.5 hPa | - | - | - | - |
| 1777896305 | 18.33° C | 37% | 1014.5 hPa | - | - | - | - |
| 1777895705 | 18.33° C | 39% | 1014.4 hPa | - | - | - | - |
| 1777895105 | 17.78° C | 40% | 1014.4 hPa | - | - | - | - |
| 1777894505 | 17.78° C | 39% | 1014.4 hPa | - | - | - | - |
| 1777893905 | 17.78° C | 41% | 1014.4 hPa | - | - | - | - |
| 1777893305 | 17.78° C | 41% | 1014.4 hPa | - | - | - | - |
| 1777892705 | 17.78° C | 41% | 1014.3 hPa | - | - | - | - |
| 1777892105 | 18.33° C | 41% | 1014.2 hPa | - | - | - | - |
| 1777891505 | 17.78° C | 40% | 1014.3 hPa | - | - | - | - |
| 1777890905 | 17.78° C | 41% | 1014.3 hPa | - | - | - | - |
| 1777890305 | 17.78° C | 40% | 1014.3 hPa | - | - | - | - |
| 1777889705 | 17.78° C | 39% | 1014.2 hPa | - | - | - | - |
| 1777889105 | 17.78° C | 39% | 1014.2 hPa | - | - | - | - |
* Rain since midnight (hover to see other rain measurements)
** Current wind speed in m/s (hover to see current wind gust speed)